{"data":{"norad_id":62211,"intl_designator":"2024-229V","name":"STARLINK-32642","alt_names":[],"object_type":"PAYLOAD","status":"ACTIVE","operator":null,"country":"US","launch_date":"2024-12-04","launch_site_code":"AFETR","launch_vehicle":null,"mission":null,"orbit_class":"UNKNOWN","rcs_meters":null,"size_class":null,"mass_kg":null,"dimensions":null,"purposes":["comms"],"wikipedia_slug":null,"has_3d_model":false,"image_url":null,"decayed_at":null,"tle_current":{"epoch":"2026-09-21T07:45:57.227328Z","epoch_age_seconds":106751,"freshness":"FRESH","line1":"1 62211U 24229V   26264.32357902  .00007729  00000+0  29003-3 0  9993","line2":"2 62211  42.9989 245.6508 0001277 256.0244 104.0466 15.27587268100480","mean_motion":15.27587268,"eccentricity":0.0001277,"inclination_deg":42.9989,"raan_deg":245.6508,"arg_perigee_deg":256.0244,"mean_anomaly_deg":104.0466,"bstar":0.00029003,"rev_number":10048,"period_min":94.266300208519,"perigee_km":482.15116243395,"apogee_km":483.90350380463,"semimajor_km":6861.1643331193,"source":"CELESTRAK","updated_at":"2026-09-22T09:00:49.543012Z"}}}